P2000 meldingen in Reeuwijk

2021-02-02 12:28:38 - Prio 1 Dunantlaan Roland Holstlaan REEUWK Ongeval wegvervoer@

2021-02-02 12:27:38 - A1 (DIA) (MMT) 13991 Rit 10066 Reeuwijk Miereakker regio 16

2021-02-02 12:26:37 - A1 Miereakker REEUWK : 16162 HELI02

2021-02-02 12:25:45 - Prio 1 Miereakker REEUWK Ongeval wegvervoer letsel

2021-02-02 12:25:09 - A2 Miereakker REEUWK Directe inzet 16153

2021-02-02 07:31:24 - A1 Beijerenstraat REEUWK : 16152

2021-02-02 04:39:35 - A1 Zijdeweg REEUWK : 16153

2021-02-01 09:30:56 - B2 Hospice Bodegraven-Reeuwijk Boesemsingel BODEGR : 16270

2021-02-01 08:03:27 - A2 Paviljoen Reeuwijkse Hout Reeuwijksehoutwal REEUWK Directe inzet 16164

2021-01-31 10:37:47 - A1 Poelruit REEUWK : 16153

2021-01-30 20:00:56 - P 2 BDH-03 Dier op hoogte Van Heuven Goedhartstraat REEUWK 163152

2021-01-29 21:20:46 - A2 Zijdeweg REEUWK Directe inzet 16153

2021-01-29 19:03:40 - A1 Kennedysingel REEUWK : 16156

2021-01-29 12:48:01 - A1 Nieuwdorperweg REEUWK : 16164

2021-01-29 12:04:35 - A2 Medisch Centrum Kaarde Kaarde REEUWK : 16157

2021-01-29 11:51:53 - A2 Edelman BV Schinkeldijk REEUWK Directe inzet 16160

2021-01-28 23:53:23 - A1 Kennedysingel REEUWK : 16156

2021-01-28 14:38:04 - A1 Rembrandtstraat REEUWK : 16150

2021-01-26 19:39:54 - A1 Wooncomplex Vrijhoef Kaarde REEUWK : 16153

2021-01-25 18:41:03 - A2 Albert Schweitzerstraat REEUWK Directe inzet 16155

2021-01-24 17:58:01 - A2 Poelruit REEUWK Directe inzet 16150

2021-01-24 11:11:59 - A1 De Lange Krag REEUWK : 16162

2021-01-24 04:51:23 - A2 Landal De Reeuwijkse Plassen Verlengde Breevaart REEUWK Directe inzet 16165

2021-01-23 23:09:27 - A2 Haarmos REEUWK Directe inzet 16111{

2021-01-23 12:59:02 - B1 Tempeldijk REEUWK : 16156

2021-01-23 12:03:36 - Prio 1 Verlengde Breevaart REEUWK Ongeval wegvervoer letsel

2021-01-22 18:11:06 - A2 De Jongstraat REEUWK Directe inzet 16157

2021-01-21 16:32:45 - Prio 4 A12 Li 33,0 REEUWK Wegverkeer verkeersstremming (soort stremming: pechgeval)

2021-01-19 14:34:31 - A2 Platteweg REEUWK : 16154

2021-01-18 09:25:40 - A2 Berkenbroek REEUWK : 16160

2021-01-18 04:05:55 - A1 Van Staverenstraat REEUWK : 16150

2021-01-17 19:48:17 - Prio 3 A12 Li 31,8 REEUWK Wegverkeer verkeersstremming (soortPrt uMua.o: aecpg%jalu

Over 247nu.nl

Op 247nu.nl lees je laatste P2000 meldingen uit heel Nederland, met respect voor de privacy van de burger. Ons doel is om zo accuraat mogelijk regionale en lokale alarmeringen te vermelden over politie, brandweer en ambulancehulpdiensten.

Social

  1. Twitter